Terug naar catalogus

BREEZE-M DEB

LostHEO
NORAD 38564·DEBRIS·🇷🇺 Russia

Gelanceerd Feb 28, 2006 vanaf Baikonur Cosmodrome

Loading…

Volgende Passages (komende 24 uur)

TLE

VerouderdSource: Space-Track

Epoch: Jan 27, 2017, 04:17 UTC

1 38564U 06006DE  17027.17904237 -.00000038 +00000-0 +00000-0 0  9990
2 38564 051.6905 083.3323 5045808 013.0806 356.3999 05.31536711107581

Volg BREEZE-M DEB in realtime met AllMySat

Download on the App Store